Location: Boston
(42.3580°N, 71.0600°W)
Time: 21:41:23
(UTC-04:00)

Tiangong 1 - Pass Details

Date: 13 October 2017
Orbit: 293 x 320 km, 42.8° (Epoch: 19 October)

Event Time Altitude Azimuth Distance (km) Brightness Sun altitude
Rises 19:54:37 0° 279° (W) 2,038 6.3 -21.0°
Reaches altitude 10° 19:56:42 10° 269° (W) 1,201 4.7 -21.4°
Enters shadow 19:58:16 25° 243° (WSW) 681 2.8 -21.7°
